AKST,Max TemperatureF,Mean TemperatureF,Min TemperatureF,Max Dew PointF,MeanDew PointF,Min DewpointF,Max Humidity, Mean Humidity, Min Humidity, Max Sea Level PressureIn, Mean Sea Level PressureIn, Min Sea Level PressureIn, Max VisibilityMiles, Mean VisibilityMiles, Min VisibilityMiles, Max Wind SpeedMPH, Mean Wind SpeedMPH, Max Gust SpeedMPH,PrecipitationIn, CloudCover, Events, WindDirDegrees
2013-2-1,44,18,-9,42,3,-16,90,77,70,30.22,30.09,29.90,10,10,7,13,6,17,0.20,2,Rain,77
2013-2-2,46,26,6,43,5,-1,90,72,57,30.16,29.72,29.55,10,10,7,18,7,,0.04,1,Rain,336
2013-2-3,44,21,-2,41,4,-7,95,77,70,29.99,29.49,29.38,10,10,3,18,2,,0.55,5,Rain,304
2013-2-4,42,18,-9,32,4,-14,94,80,51,29.97,29.65,29.52,10,4,0,6,1,,0.00,7,Snow,316
2013-2-5,44,20,-4,38,-5,-21,88,81,70,29.72,29.66,29.39,10,9,3,18,1,,0.04,7,Rain,70
2013-2-6,44,18,-8,34,-7,-13,95,74,58,29.78,29.70,29.61,10,6,1,8,3,,0.03,8,Snow,323
2013-2-7,39,12,-14,36,-5,-19,95,76,66,30.09,29.54,29.33,10,9,1,8,3,,0.20,5,Rain-Snow,320
2013-2-8,45,22,-5,39,-1,-9,95,79,72,30.12,29.67,29.41,10,7,1,12,2,,0.01,7,Rain-Snow,56
2013-2-9,45,28,9,43,10,-16,95,76,58,30.27,29.50,29.03,10,10,9,20,6,30,0.08,2,,51
2013-2-10,46,24,1,42,12,-3,93,83,71,30.24,29.34,28.99,10,6,1,9,3,,0.16,6,Snow,307
2013-2-11,43,18,-7,38,10,-13,92,82,73,30.14,29.69,29.50,10,8,2,12,3,,0.20,7,Rain-Snow,294
2013-2-12,43,16,-13,41,-10,-22,92,80,70,29.83,29.77,29.62,10,8,0,5,0,,0.24,5,Fog-Rain,265
2013-2-13,41,14,-13,34,-6,-19,90,79,64,30.31,29.85,29.78,10,10,10,17,1,,0.00,1,,270
2013-2-14,46,28,10,45,7,-14,95,70,50,30.22,29.52,29.33,10,9,2,16,7,25,0.43,5,Rain-Snow,347
2013-2-15,46,21,-6,45,4,-11,95,77,63,30.16,29.87,29.57,10,5,1,14,6,22,0.71,8,Rain-Snow,256
2013-2-16,45,14,-17,37,-11,-22,95,76,62,30.22,30.10,29.96,10,10,10,7,1,,0.00,5,,324
2013-2-17,39,15,-11,35,-9,-18,89,73,65,30.25,30.00,29.87,10,7,2,12,4,,0.59,7,Rain-Snow,274
2013-2-18,41,4,-35,36,-19,-35,94,74,61,30.33,30.24,29.72,10,9,4,12,2,,0.35,3,Rain,300
2013-2-19,40,0,-41,37,-11,-33,92,65,54,30.21,29.94,29.61,10,7,2,12,2,18,0.08,0,,57
2013-2-20,42,11,-20,36,-13,-28,84,67,52,29.67,29.49,29.43,10,8,2,21,4,,0.16,4,Rain-Snow,335
2013-2-21,42,17,-8,37,-9,-16,90,71,65,29.56,29.43,29.29,10,5,1,22,7,,0.39,8,Rain-Snow,328
2013-2-22,45,12,-25,38,-15,-29,85,68,59,29.68,29.53,29.00,10,6,2,10,5,,0.12,6,Rain-Snow,325
2013-2-23,41,8,-25,38,-15,-31,94,71,54,29.96,29.48,29.37,10,10,7,16,1,,0.39,2,Rain,320
2013-2-24,43,12,-20,30,-17,-26,94,72,52,29.84,29.62,29.42,10,10,10,5,0,,0.00,0,,135
2013-2-25,35,9,-17,32,-11,-24,89,71,50,29.98,29.81,29.77,10,10,10,5,1,,0.00,0,,62
2013-2-26,42,16,-11,37,0,-20,90,66,51,29.81,29.64,29.47,10,10,6,18,4,24,0.16,1,Rain,53
2013-2-27,44,24,3,36,10,-3,84,60,47,29.90,29.43,29.31,10,10,6,21,10,22,0.04,1,Rain,62
2013-2-28,46,24,3,38,9,-1,85,59,49,29.94,29.47,29.39,10,10,10,13,7,21,0.43,1,,349